Regional Weather Roundup
Issued by NWS

Home | Current Version | Previous Version | Text Only | Print | Product List | Glossary On
Versions: 1 2 3 4 5 6 7 8 9 10 11 12 13 14 15 16 17 18 19 20 21 22 23 24 25 26 27 28 29 30 31 32 33 34 35 36 37 38 39 40 41 42 43 44 45 46 47 48 49 50
000
ASUS46 KSEW 281110
RWRWA

WASHINGTON REGIONAL WEATHER ROUNDUP
NATIONAL WEATHER SERVICE SEATTLE WA
400 AM PDT WED JUN 28 2017

NOTE:"FAIR" INDICATES FEW OR NO CLOUDS BELOW 12,000 FEET WITH NO
SIGNIFICANT WEATHER AND/OR OBSTRUCTIONS TO VISIBILITY.

WAZ507-509-555>559-281200-
SEATTLE, TACOMA, EVERETT, AND VICINITY

CITY           SKY/WX    TMP DP  RH WIND       PRES   REMARKS
EVERETT        PTCLDY    55  51  86 SE6       29.99S
BOEING FIELD   MOCLDY    56  53  90 S6        29.99S
RENTON         MOCLDY    58  52  80 SE5       30.00R
SEATAC AIRPORT MOCLDY    55  51  86 S7        30.00R
JBLM-MCCHORD   CLEAR     49  49 100 SE3       30.01R
PUYALLUP       CLOUDY    52  52 100 CALM      30.01S
BREMERTON      CLOUDY    51  50  96 S3        30.00R
JBLM-FT LEWIS  CLEAR     49  49  99 SE3       30.00S
TACOMA NARROWS CLEAR     51  50  96 S6        30.00S
$$

WAZ001-503-506-510-514-515-281200-
NORTH INTERIOR

CITY           SKY/WX    TMP DP  RH WIND       PRES   REMARKS
BELLINGHAM     PTCLDY    57  54  89 VRB5      29.95S
FRIDAY HARBOR  CLEAR     42  32  67 CALM      29.97S
EASTSOUND        N/A     54  52  94 CALM      29.96S
PORT ANGELES   CLEAR     51  51 100 W6        29.99R
EDIZ HOOK      FAIR      52  50  92 W9        29.98S
PORT TOWNSEND    N/A     45  43  93 CALM      29.99S
NAS WHIDBEY    PTCLDY    54  49  83 SW8       30.01R
ARLINGTON      MOCLDY    51  50  96 CALM      29.99R
BURLINGTON     CLOUDY    54  52  94 CALM      29.97S
$$

WAZ020-022-039-040-504-511-512-281200-
SOUTHWEST INTERIOR

CITY           SKY/WX    TMP DP  RH WIND       PRES   REMARKS
SHELTON        NOT AVBL
OLYMPIA        MOCLDY    49  48  97 S3        30.01R
CHEHALIS       CLOUDY    50  50 100 CALM      30.02R
KELSO          CLOUDY    58  51  78 CALM      30.03R
VANCOUVER      CLOUDY    57  51  80 CALM      30.02R
SCAPPOOSE, OR  CLOUDY    50  48  93 CALM      30.02R
PORTLAND, OR   MOCLDY    56  49  77 NW6       30.03R
$$

WAZ021-516-517-281200-
WASHINGTON COAST

CITY           SKY/WX    TMP DP  RH WIND       PRES   REMARKS
FORKS          CLOUDY    54  51  90 CALM      30.00S
HOQUIAM        CLOUDY    56  52  86 W5        30.02R
ASTORIA, OR    CLOUDY    57  50  77 W8        30.03R
$$

WAZ019-023-024-040-567>569-281200-
CASCADE MOUNTAINS AND COLUMBIA GORGE

CITY           SKY/WX    TMP DP  RH WIND       PRES   REMARKS
STAMPEDE PASS  FOG       46  46 100 VRB5      30.00R VSB 1/4
TROUTDALE, OR  CLOUDY    57  50  77 VRB3      30.02R
HOOD RIVER, OR SUNNY     59  48  67 W17G26    29.93R
THE DALLES, OR CLEAR     63  51  65 NW17      29.87S
$$

WAZ026-027-041>044-520-521-281200-
EAST SLOPES

CITY           SKY/WX    TMP DP  RH WIND       PRES   REMARKS
OMAK           CLEAR     60  39  45 N12       29.78R
WENATCHEE      CLEAR     63  41  44 NW20      29.81S
ELLENSBURG     CLEAR     59  44  57 NW23G31   29.85S
YAKIMA         CLEAR     67  45  45 NW16      29.83R
SUNNYSIDE ARPT SUNNY     56  43  61 CALM      29.81S
YAKIMA TC      NOT AVBL
$$

WAZ028-034-035-281200-
COLUMBIA BASIN

CITY           SKY/WX    TMP DP  RH WIND       PRES   REMARKS
EPHRATA        CLEAR     65  35  33 W14G20    29.75S
MOSES LAKE     CLEAR     62  43  49 SW6       29.77S
PASCO          CLEAR     62  49  62 S8        29.81R
RICHLAND ARPT  SUNNY     58  47  66 S6        29.81R
HERMISTON, OR  CLEAR     63  45  51 SW14      29.83R
$$

WAZ036>038-281200-
NORTHEAST WASHINGTON

CITY           SKY/WX    TMP DP  RH WIND       PRES   REMARKS
SPOKANE GEIGER PTCLDY    57  44  62 SE7       29.80S
SPOKANE FELTS  PTCLDY    61  46  57 VRB7      29.80R
FAIRCHILD AFB  CLEAR     52  43  71 SE5       29.79S
COEURDALENE,ID MOCLDY    58  48  69 S9        29.81R
DEER PARK      CLEAR     50  44  80 W5        29.80R
$$

WAZ029>033-281200-
SOUTHEAST WASHINGTON

CITY           SKY/WX    TMP DP  RH WIND       PRES   REMARKS
PULLMAN        CLEAR     51  42  71 CALM      29.85S
LEWISTON, ID   CLEAR     59  45  59 CALM      29.80R
WALLA WALLA    CLEAR     61  47  59 S6        29.85R
PENDLETON, OR  CLEAR     58  42  55 S6        29.87R
$$



USA.gov is the U.S. government's official web portal to all federal, state and local government web resources and services.